Simultaneous Nadir Overpasses (SNOs) Predictions

Prediction of SNOs between NOAA-20 and METOP-B Satellite Orbit:

Table of predicted SNOs for the next 14.0 days since TLE Epoch: 5/28/2022
Index Date (NOAA-20) Time (NOAA-20) Lat,Lon (NOAA-20) SZA (NOAA-20 ) Date (METOP-B) Time (METOP-B) Lat,Lon (METOP-B) SZA (METOP-B ) Distance(km) Time Diff (sec)
1 05/28/2022 17:59:12 -73.59, 80.36 127.80 05/28/2022 18:00:18 -73.50, 83.37 128.03 95.34 66
2 05/28/2022 18:49:53 73.34,-111.75 51.92 05/28/2022 18:51:02 73.29,-109.77 51.77 63.56 69
3 05/28/2022 19:40:35 -73.25, 55.76 128.19 05/28/2022 19:41:45 -73.23, 57.43 128.29 53.44 70
4 05/28/2022 20:31:17 73.04,-136.48 51.58 05/28/2022 20:32:29 73.02,-135.70 51.51 25.35 72
5 05/28/2022 21:22:00 -73.00, 30.92 128.47 05/28/2022 21:23:13 -72.91, 31.40 128.59 18.59 73
6 05/28/2022 22:12:43 72.85,-161.43 51.36 05/28/2022 22:13:54 72.85,-161.40 51.35 1.10 71
7 05/28/2022 23:03:27 -72.86, 5.85 128.64 05/28/2022 23:04:36 -72.84, 5.91 128.67 2.64 69
8 05/28/2022 23:54:13 72.85, 173.18 51.35 05/28/2022 23:55:16 72.83, 173.22 51.32 2.84 63
9 05/29/2022 00:44:56 -72.82, -19.43 128.69 05/29/2022 00:45:58 -72.82, -19.47 128.70 1.68 62
10 05/29/2022 01:35:42 72.81, 147.90 51.30 05/29/2022 01:36:38 72.81, 147.84 51.29 2.02 56
11 05/29/2022 02:26:26 -72.82, -44.81 128.70 05/29/2022 02:27:20 -72.80, -44.85 128.73 2.31 54
12 05/29/2022 03:17:12 72.81, 122.51 51.29 05/29/2022 03:18:00 72.79, 122.46 51.26 3.19 48
13 05/29/2022 04:07:56 -72.83, -70.20 128.70 05/29/2022 04:08:41 -72.84, -70.13 128.71 2.60 45
14 05/29/2022 04:58:42 72.82, 97.12 51.29 05/29/2022 04:59:21 72.82, 97.18 51.28 1.91 39
15 05/29/2022 05:49:25 -72.83, -95.59 128.71 05/29/2022 05:50:02 -72.82, -95.51 128.74 3.34 37
16 05/29/2022 06:40:10 72.78, 71.84 51.23 05/29/2022 06:40:42 72.80, 71.80 51.25 3.22 32
17 05/29/2022 07:30:54 -72.79,-120.87 128.77 05/29/2022 07:31:24 -72.80,-120.89 128.76 0.97 30
18 05/29/2022 08:21:40 72.78, 46.45 51.22 05/29/2022 08:22:04 72.78, 46.42 51.22 1.14 24
19 05/29/2022 09:12:24 -72.80,-146.26 128.77 05/29/2022 09:12:46 -72.78,-146.27 128.79 2.06 22
20 05/29/2022 10:03:10 72.79, 21.07 51.22 05/29/2022 10:03:26 72.76, 21.04 51.19 2.97 16
21 05/29/2022 10:53:54 -72.80,-171.64 128.77 05/29/2022 10:54:07 -72.81,-171.54 128.78 3.43 13
22 05/29/2022 11:44:40 72.79, -4.32 51.22 05/29/2022 11:44:47 72.79, -4.24 51.21 2.77 7
23 05/29/2022 12:35:23 -72.76, 163.07 128.83 05/29/2022 12:35:29 -72.79, 163.08 128.80 3.55 6
24 05/29/2022 13:26:09 72.75, -29.60 51.16 05/29/2022 13:26:09 72.77, -29.62 51.18 2.77 0
25 05/29/2022 14:16:53 -72.76, 137.69 128.84 05/29/2022 14:16:51 -72.77, 137.70 128.83 0.79 2
26 05/29/2022 15:07:39 72.76, -54.99 51.15 05/29/2022 15:07:31 72.75, -55.00 51.15 0.31 8
27 05/29/2022 15:58:23 -72.77, 112.30 128.84 05/29/2022 15:58:13 -72.75, 112.32 128.86 2.20 10
28 05/29/2022 16:49:09 72.76, -80.38 51.15 05/29/2022 16:48:53 72.74, -80.38 51.13 3.02 16
29 05/29/2022 17:39:52 -72.72, 87.02 128.90 05/29/2022 17:39:35 -72.73, 86.94 128.89 2.74 17
30 05/29/2022 18:30:38 72.72,-105.66 51.09 05/29/2022 18:30:15 72.72,-105.76 51.10 3.30 23
31 05/29/2022 19:21:22 -72.73, 61.63 128.90 05/29/2022 19:20:57 -72.71, 61.56 128.92 3.27 25
32 05/29/2022 20:12:08 72.72,-131.05 51.09 05/29/2022 20:11:36 72.75,-131.04 51.12 2.56 32
33 05/29/2022 21:02:52 -72.74, 36.24 128.91 05/29/2022 21:02:18 -72.74, 36.28 128.90 1.39 34
34 05/29/2022 21:53:38 72.73,-156.43 51.08 05/29/2022 21:52:58 72.73,-156.42 51.09 0.71 40
35 05/29/2022 22:44:22 -72.74, 10.86 128.91 05/29/2022 22:43:40 -72.72, 10.90 128.93 2.67 42
36 05/29/2022 23:35:08 72.74, 178.18 51.08 05/29/2022 23:34:20 72.71, 178.20 51.06 3.34 48
37 05/30/2022 00:25:51 -72.70, -14.43 128.97 05/30/2022 00:25:02 -72.70, -14.48 128.95 1.83 49
38 05/30/2022 01:16:37 72.69, 152.90 51.02 05/30/2022 01:15:42 72.69, 152.82 51.03 2.44 55
39 05/30/2022 02:07:21 -72.70, -39.81 128.97 05/30/2022 02:06:24 -72.68, -39.86 128.98 2.74 57
40 05/30/2022 02:58:07 72.70, 127.51 51.02 05/30/2022 02:57:03 72.72, 127.55 51.05 2.65 64
41 05/30/2022 03:48:51 -72.71, -65.20 128.98 05/30/2022 03:47:45 -72.71, -65.13 128.96 2.22 66
42 05/30/2022 04:39:37 72.70, 102.12 51.01 05/30/2022 04:38:25 72.70, 102.17 51.02 1.62 72
43 05/30/2022 05:30:21 -72.72, -90.59 128.98 05/30/2022 05:29:07 -72.70, -90.51 128.99 3.35 74
44 05/30/2022 06:21:03 72.51, 77.15 50.79 05/30/2022 06:19:50 72.53, 76.48 50.85 22.57 73
45 05/30/2022 07:11:46 -72.47,-115.46 129.26 05/30/2022 07:10:33 -72.47,-116.31 129.20 28.36 73
46 05/30/2022 08:02:27 72.21, 52.37 50.46 05/30/2022 08:01:18 72.20, 50.49 50.55 63.76 69
47 05/30/2022 08:53:10 -72.17,-140.25 129.59 05/30/2022 08:52:01 -72.15,-142.28 129.50 69.50 69



Historial Predications of SNOs between NOAA-20 and METOP-B
